Grizzly Air Cargo 5138


PASC
Deadhorse Airport
Deadhorse, Alaska, US
PABR
Wiley Post-Will Rogers Memorial Airport
Barrow, Alaska, US

Activity Log

Date Flight Route Aircraft Duration
11/26/2019 GRZ5138 N0407F280 SCC Q48 BRW B738 0h 55m
09/09/2019 GRZ538 SCC OKIKE SEJYY BRW B722 0h 42m
06/27/2019 GRZ538 SCC Y BRW B722 0h 44m
04/15/2019 GRZ538 SCC J507 BRW B722 0h 43m
03/21/2019 GRZ538 SCC OKIKE SEJYY BRW B722 0h 49m

Route Details

Aircraft Information
Primary: Boeing 727-200F
Backup: Boeing 737-800BCF
Route Data
Distance: 206nm
Sched. Duration: 1h 00m
Avg. Duration: 0h 46m (-53m)
Times Flown: 5
Recm'd Route: SCC OKIKE SEJYY BRW
Planned Altitude: 28,000ft
Origin Wx: PASC 252053Z 04008KT 1/4SM R06/2000V2200FT FZFG VV003 M22/M23 A3025 RMK AO2 SLP246 I1000 I3000 T12171233 53011
Dest. Wx: PABR 252053Z 04010KT 10SM CLR M21/M24 A3034 RMK AO2 SLP276 T12111244 53015
Notes:

Financial History
Total Freight: 173,597lbs
Average Load: 34,719lbs/flt
Fuel Used: 25,866lbs
Avg. Fuel Used: 5,173lbs/flt
Fuel Expense: $20,434
Avg. Fuel Expense: $4,087
Avg. Fuel Cost: $0.79/lbs
Total Gross Income: $485,079
Pilot Pay: $1,145
Total Expenses: $52,649
Total Revenue: $411,078
Average Revenue: $97,015.89